Location: Newark
(55.7681°N, 37.7103°E)
Time: 09:11:45
(UTC+00:00)

N. Korean satellite - Pass Details

Date: 29 October 2019
Orbit: 456 x 506 km, 97.2° (Epoch: 12 November)

Event Time Altitude Azimuth Distance (km) Brightness Sun altitude
Rises 14:44:36 0° 180° (S) 2,487 10.4 -7.2°
Reaches altitude 10° 14:46:41 10° 187° (S) 1,623 9.5 -7.5°
Maximum altitude 14:50:03 45° 261° (W) 658 7.9 -8.0°
Drops below altitude 10° 14:53:29 10° 335° (NNW) 1,663 9.4 -8.4°
Sets 14:55:39 0° 342° (NNW) 2,557 10.3 -8.7°
